Time,TemperatureF,DewpointF,PressureIn,WindDirection,WindDirectionDegrees,WindSpeedMPH,WindSpeedGustMPH,Humidity,HourlyPrecipIn,Conditions,Clouds,dailyrainin,SoftwareType,DateUTC
2013-02-07 00:03:00,49.6,46.2,30.18,North,-999,0.0,0.0,88,0.00,,,-99.99,FreeWX-Wi 1.01,2013-02-07 08:03:00,
2013-02-07 00:13:00,49.6,46.2,30.18,North,-999,0.0,4.0,88,0.00,,,-99.99,FreeWX-Wi 1.01,2013-02-07 08:13:00,
2013-02-07 00:23:00,49.6,46.2,30.18,North,-999,0.0,4.0,88,0.00,,,-99.99,FreeWX-Wi 1.01,2013-02-07 08:23:00,
2013-02-07 00:33:00,49.6,46.2,30.18,North,-999,0.0,3.6,88,0.00,,,-99.99,FreeWX-Wi 1.01,2013-02-07 08:33:00,
2013-02-07 00:43:00,49.6,46.2,30.18,North,-999,0.0,4.0,88,0.00,,,-99.99,FreeWX-Wi 1.01,2013-02-07 08:43:00,
2013-02-07 00:53:00,49.5,45.7,30.18,North,-999,0.0,0.0,87,0.00,,,-99.99,FreeWX-Wi 1.01,2013-02-07 08:53:00,
2013-02-07 01:03:00,49.5,45.7,30.18,North,-999,0.0,3.1,87,0.00,,,-99.99,FreeWX-Wi 1.01,2013-02-07 09:03:00,
2013-02-07 01:13:00,49.5,45.7,30.18,North,-999,0.0,2.7,87,0.00,,,-99.99,FreeWX-Wi 1.01,2013-02-07 09:13:00,
2013-02-07 01:23:00,49.5,45.7,30.18,North,-999,0.0,0.0,87,0.00,,,-99.99,FreeWX-Wi 1.01,2013-02-07 09:23:00,
2013-02-07 01:33:00,49.5,45.5,30.18,North,-999,0.0,4.0,86,0.00,,,-99.99,FreeWX-Wi 1.01,2013-02-07 09:33:00,
2013-02-07 01:43:00,49.6,45.7,30.18,North,-999,0.0,4.0,86,0.00,,,-99.99,FreeWX-Wi 1.01,2013-02-07 09:43:00,
2013-02-07 01:53:00,49.8,45.9,30.18,North,-999,0.0,0.0,86,0.00,,,-99.99,FreeWX-Wi 1.01,2013-02-07 09:53:00,
2013-02-07 02:03:00,49.8,45.9,30.18,North,-999,0.0,0.0,86,0.00,,,-99.99,FreeWX-Wi 1.01,2013-02-07 10:03:00,
2013-02-07 02:13:00,49.8,45.9,30.18,North,-999,0.0,0.0,86,0.00,,,-99.99,FreeWX-Wi 1.01,2013-02-07 10:13:00,
2013-02-07 02:23:00,49.8,45.9,30.18,North,-999,0.0,0.0,86,0.00,,,-99.99,FreeWX-Wi 1.01,2013-02-07 10:23:00,
2013-02-07 02:33:00,49.6,45.7,30.18,North,-999,0.0,0.0,86,0.00,,,-99.99,FreeWX-Wi 1.01,2013-02-07 10:33:00,
2013-02-07 02:43:00,49.5,45.5,30.18,North,-999,0.0,0.0,86,0.00,,,-99.99,FreeWX-Wi 1.01,2013-02-07 10:43:00,
2013-02-07 02:53:00,49.3,45.0,30.18,North,-999,0.0,0.0,85,0.00,,,-99.99,FreeWX-Wi 1.01,2013-02-07 10:53:00,
2013-02-07 03:03:00,49.3,45.3,30.18,North,-999,0.0,0.0,86,0.00,,,-99.99,FreeWX-Wi 1.01,2013-02-07 11:03:00,
2013-02-07 03:13:00,49.3,45.3,30.18,North,-999,0.0,0.0,86,0.00,,,-99.99,FreeWX-Wi 1.01,2013-02-07 11:13:00,
2013-02-07 03:23:00,49.1,44.8,30.15,North,-999,0.0,0.0,85,0.00,,,-99.99,FreeWX-Wi 1.01,2013-02-07 11:23:00,
2013-02-07 03:33:00,49.1,44.8,30.15,North,-999,0.0,0.0,85,0.00,,,-99.99,FreeWX-Wi 1.01,2013-02-07 11:33:00,
2013-02-07 03:43:00,48.9,44.6,30.15,North,-999,0.0,0.0,85,0.00,,,-99.99,FreeWX-Wi 1.01,2013-02-07 11:43:00,
2013-02-07 03:53:00,48.9,44.6,30.15,North,-999,0.0,0.0,85,0.00,,,-99.99,FreeWX-Wi 1.01,2013-02-07 11:53:00,
2013-02-07 04:03:00,48.9,44.6,30.15,North,-999,0.0,0.0,85,0.00,,,-99.99,FreeWX-Wi 1.01,2013-02-07 12:03:00,
2013-02-07 04:13:00,49.1,44.8,30.15,North,-999,0.0,0.0,85,0.00,,,-99.99,FreeWX-Wi 1.01,2013-02-07 12:13:00,
2013-02-07 04:23:00,49.1,44.8,30.15,North,-999,0.0,0.0,85,0.00,,,-99.99,FreeWX-Wi 1.01,2013-02-07 12:23:00,
2013-02-07 04:33:00,49.1,44.8,30.15,North,-999,0.0,0.0,85,0.00,,,-99.99,FreeWX-Wi 1.01,2013-02-07 12:33:00,
2013-02-07 04:43:00,49.1,44.8,30.15,North,-999,0.0,0.0,85,0.00,,,-99.99,FreeWX-Wi 1.01,2013-02-07 12:43:00,
2013-02-07 04:53:00,48.9,44.6,30.15,North,-999,0.0,0.0,85,0.00,,,-99.99,FreeWX-Wi 1.01,2013-02-07 12:53:00,
2013-02-07 05:03:00,48.9,44.6,30.15,North,-999,0.0,0.0,85,0.00,,,-99.99,FreeWX-Wi 1.01,2013-02-07 13:03:00,
2013-02-07 05:13:00,48.9,44.6,30.15,North,-999,0.0,0.0,85,0.00,,,-99.99,FreeWX-Wi 1.01,2013-02-07 13:13:00,
2013-02-07 05:23:00,49.1,44.8,30.15,North,-999,0.0,0.0,85,0.00,,,-99.99,FreeWX-Wi 1.01,2013-02-07 13:23:00,
2013-02-07 05:33:00,49.1,44.8,30.15,North,-999,0.0,0.0,85,0.00,,,-99.99,FreeWX-Wi 1.01,2013-02-07 13:33:00,
2013-02-07 05:43:00,49.1,44.4,30.12,North,-999,0.0,3.6,84,0.00,,,-99.99,FreeWX-Wi 1.01,2013-02-07 13:43:00,
2013-02-07 05:53:00,48.9,44.2,30.12,North,-999,0.0,3.1,84,0.00,,,-99.99,FreeWX-Wi 1.01,2013-02-07 13:53:00,
2013-02-07 06:03:00,48.9,44.2,30.12,North,-999,0.0,0.0,84,0.00,,,-99.99,FreeWX-Wi 1.01,2013-02-07 14:03:00,
2013-02-07 06:13:00,48.7,43.9,30.12,North,-999,0.0,2.7,83,0.00,,,-99.99,FreeWX-Wi 1.01,2013-02-07 14:13:00,
2013-02-07 06:23:00,48.7,43.9,30.12,North,-999,0.0,0.0,83,0.00,,,-99.99,FreeWX-Wi 1.01,2013-02-07 14:23:00,
2013-02-07 06:33:00,48.7,43.9,30.12,North,-999,0.0,2.2,83,0.00,,,-99.99,FreeWX-Wi 1.01,2013-02-07 14:33:00,
2013-02-07 06:43:00,48.6,43.7,30.12,North,-999,0.0,0.0,83,0.00,,,-99.99,FreeWX-Wi 1.01,2013-02-07 14:43:00,
2013-02-07 06:53:00,48.6,43.7,30.12,North,-999,0.0,2.7,83,0.00,,,-99.99,FreeWX-Wi 1.01,2013-02-07 14:53:00,
2013-02-07 07:03:00,48.6,43.3,30.12,North,-999,0.0,2.7,82,0.00,,,-99.99,FreeWX-Wi 1.01,2013-02-07 15:03:00,
2013-02-07 07:13:00,48.7,43.5,30.12,North,-999,0.0,2.2,82,0.00,,,-99.99,FreeWX-Wi 1.01,2013-02-07 15:13:00,
2013-02-07 07:23:00,48.9,43.7,30.12,North,-999,0.0,2.7,82,0.00,,,-99.99,FreeWX-Wi 1.01,2013-02-07 15:23:00,
2013-02-07 07:33:00,49.1,43.9,30.12,North,-999,0.0,3.1,82,0.00,,,-99.99,FreeWX-Wi 1.01,2013-02-07 15:33:00,
2013-02-07 07:44:00,49.1,43.9,30.12,North,-999,0.0,3.1,82,0.00,,,-99.99,FreeWX-Wi 1.01,2013-02-07 15:44:00,
2013-02-07 07:54:00,49.1,44.2,30.12,North,-999,0.0,2.2,83,0.00,,,-99.99,FreeWX-Wi 1.01,2013-02-07 15:54:00,
2013-02-07 08:04:00,49.1,44.2,30.12,North,-999,0.0,3.6,83,0.00,,,-99.99,FreeWX-Wi 1.01,2013-02-07 16:04:00,
2013-02-07 08:14:00,49.1,44.4,30.12,North,-999,0.0,5.4,84,0.00,,,-99.99,FreeWX-Wi 1.01,2013-02-07 16:14:00,
2013-02-07 08:24:00,48.9,44.6,30.12,North,-999,0.0,4.0,85,0.00,,,-99.99,FreeWX-Wi 1.01,2013-02-07 16:24:00,
2013-02-07 08:34:00,48.9,44.6,30.12,North,-999,0.0,2.7,85,0.00,,,-99.99,FreeWX-Wi 1.01,2013-02-07 16:34:00,
2013-02-07 08:44:00,49.1,44.8,30.15,North,-999,0.0,8.1,85,0.04,,,-99.99,FreeWX-Wi 1.01,2013-02-07 16:44:00,
2013-02-07 08:54:00,49.1,46.2,30.15,SW,232,1.0,6.3,90,0.04,,,-99.99,FreeWX-Wi 1.01,2013-02-07 16:54:00,
2013-02-07 09:04:00,49.1,46.2,30.15,NW,304,1.0,3.1,90,0.04,,,-99.99,FreeWX-Wi 1.01,2013-02-07 17:04:00,
2013-02-07 09:14:00,49.5,46.9,30.15,North,351,1.0,4.9,91,0.04,,,-99.99,FreeWX-Wi 1.01,2013-02-07 17:14:00,
2013-02-07 09:24:00,50.0,47.5,30.15,North,-999,0.0,4.9,91,0.04,,,-99.99,FreeWX-Wi 1.01,2013-02-07 17:24:00,
2013-02-07 09:34:00,50.2,47.7,30.15,North,-999,0.0,3.6,91,0.12,,,-99.99,FreeWX-Wi 1.01,2013-02-07 17:34:00,
2013-02-07 09:44:00,50.5,48.0,30.15,North,-999,0.0,0.0,91,0.08,,,-99.99,FreeWX-Wi 1.01,2013-02-07 17:44:00,
2013-02-07 09:54:00,50.9,48.4,30.15,North,-999,0.0,3.1,91,0.08,,,-99.99,FreeWX-Wi 1.01,2013-02-07 17:54:00,
2013-02-07 10:04:00,51.3,48.7,30.15,North,-999,0.0,0.0,91,0.08,,,-99.99,FreeWX-Wi 1.01,2013-02-07 18:04:00,
2013-02-07 10:14:00,51.4,48.9,30.15,North,-999,0.0,0.0,91,0.08,,,-99.99,FreeWX-Wi 1.01,2013-02-07 18:14:00,
2013-02-07 10:24:00,51.4,48.6,30.15,North,-999,0.0,4.0,90,0.08,,,-99.99,FreeWX-Wi 1.01,2013-02-07 18:24:00,
2013-02-07 10:34:00,51.4,46.8,30.15,North,-999,0.0,4.9,84,0.00,,,-99.99,FreeWX-Wi 1.01,2013-02-07 18:34:00,
2013-02-07 10:44:00,52.2,44.1,30.15,NNW,347,2.0,6.3,74,0.00,,,-99.99,FreeWX-Wi 1.01,2013-02-07 18:44:00,
2013-02-07 10:54:00,52.2,43.7,30.15,North,351,2.0,7.2,73,0.00,,,-99.99,FreeWX-Wi 1.01,2013-02-07 18:54:00,
2013-02-07 11:04:00,52.5,43.0,30.15,North,0,2.0,5.4,70,0.00,,,-99.99,FreeWX-Wi 1.01,2013-02-07 19:04:00,
2013-02-07 11:14:00,53.2,44.4,30.15,North,1,2.0,6.3,72,0.00,,,-99.99,FreeWX-Wi 1.01,2013-02-07 19:14:00,
2013-02-07 11:24:00,54.0,44.1,30.15,NNW,335,2.0,6.3,69,0.00,,,-99.99,FreeWX-Wi 1.01,2013-02-07 19:24:00,
2013-02-07 11:34:00,54.3,44.4,30.15,NNW,333,2.0,6.3,69,0.00,,,-99.99,FreeWX-Wi 1.01,2013-02-07 19:34:00,
2013-02-07 11:44:00,54.1,43.0,30.15,NNW,336,3.0,7.6,66,0.00,,,-99.99,FreeWX-Wi 1.01,2013-02-07 19:44:00,
2013-02-07 11:54:00,54.1,43.0,30.15,NNW,340,3.0,8.3,66,0.00,,,-99.99,FreeWX-Wi 1.01,2013-02-07 19:54:00,
2013-02-07 12:04:00,54.7,43.2,30.15,NNW,345,3.0,7.6,65,0.00,,,-99.99,FreeWX-Wi 1.01,2013-02-07 20:04:00,
2013-02-07 12:14:00,54.5,41.7,30.15,NNW,344,3.0,6.7,62,0.00,,,-99.99,FreeWX-Wi 1.01,2013-02-07 20:14:00,
2013-02-07 12:24:00,54.0,42.8,30.12,North,349,4.0,8.1,66,0.00,,,-99.99,FreeWX-Wi 1.01,2013-02-07 20:24:00,
2013-02-07 12:34:00,53.8,42.3,30.12,NNW,341,4.0,10.5,65,0.00,,,-99.99,FreeWX-Wi 1.01,2013-02-07 20:34:00,
2013-02-07 12:44:00,54.5,40.8,30.12,NNW,337,4.0,7.6,60,0.00,,,-99.99,FreeWX-Wi 1.01,2013-02-07 20:44:00,
2013-02-07 12:54:00,55.2,39.4,30.12,NNW,341,3.0,5.8,55,0.00,,,-99.99,FreeWX-Wi 1.01,2013-02-07 20:54:00,
2013-02-07 13:04:00,55.4,39.0,30.12,NNW,339,3.0,8.3,54,0.00,,,-99.99,FreeWX-Wi 1.01,2013-02-07 21:04:00,
2013-02-07 13:14:00,55.2,37.9,30.12,NNW,337,4.0,10.1,52,0.00,,,-99.99,FreeWX-Wi 1.01,2013-02-07 21:14:00,
2013-02-07 13:24:00,55.6,39.7,30.12,NNW,341,4.0,8.3,55,0.00,,,-99.99,FreeWX-Wi 1.01,2013-02-07 21:24:00,
2013-02-07 13:34:00,55.6,37.8,30.12,NNW,345,3.0,6.3,51,0.00,,,-99.99,FreeWX-Wi 1.01,2013-02-07 21:34:00,
2013-02-07 13:44:00,55.0,36.7,30.12,NNW,346,3.0,9.6,50,0.00,,,-99.99,FreeWX-Wi 1.01,2013-02-07 21:44:00,
2013-02-07 13:54:00,55.2,36.3,30.09,NNW,339,3.0,6.3,49,0.00,,,-99.99,FreeWX-Wi 1.01,2013-02-07 21:54:00,
2013-02-07 14:04:00,54.9,35.1,30.09,NNW,338,3.0,7.6,47,0.00,,,-99.99,FreeWX-Wi 1.01,2013-02-07 22:04:00,
2013-02-07 14:14:00,54.5,34.7,30.09,NNW,334,3.0,7.6,47,0.00,,,-99.99,FreeWX-Wi 1.01,2013-02-07 22:14:00,
2013-02-07 14:24:00,54.0,35.2,30.09,NNW,329,4.0,10.5,49,0.00,,,-99.99,FreeWX-Wi 1.01,2013-02-07 22:24:00,
2013-02-07 14:34:00,54.1,34.9,30.09,NNW,331,4.0,7.2,48,0.00,,,-99.99,FreeWX-Wi 1.01,2013-02-07 22:34:00,
2013-02-07 14:44:00,53.8,34.0,30.09,NNW,331,4.0,8.3,47,0.00,,,-99.99,FreeWX-Wi 1.01,2013-02-07 22:44:00,
2013-02-07 14:54:00,54.0,34.7,30.09,NNW,334,4.0,8.1,48,0.00,,,-99.99,FreeWX-Wi 1.01,2013-02-07 22:54:00,
2013-02-07 15:04:00,54.0,35.2,30.09,North,353,3.0,7.6,49,0.00,,,-99.99,FreeWX-Wi 1.01,2013-02-07 23:04:00,
2013-02-07 15:14:00,53.4,34.7,30.09,North,354,3.0,9.6,49,0.00,,,-99.99,FreeWX-Wi 1.01,2013-02-07 23:14:00,
2013-02-07 15:24:00,53.2,34.5,30.09,NNW,343,4.0,7.2,49,0.00,,,-99.99,FreeWX-Wi 1.01,2013-02-07 23:24:00,
2013-02-07 15:34:00,53.1,34.9,30.09,NNW,329,4.0,7.6,50,0.00,,,-99.99,FreeWX-Wi 1.01,2013-02-07 23:34:00,
2013-02-07 15:44:00,52.9,35.2,30.09,NNW,335,4.0,7.6,51,0.00,,,-99.99,FreeWX-Wi 1.01,2013-02-07 23:44:00,
2013-02-07 15:54:00,52.5,34.9,30.09,NNW,339,4.0,8.1,51,0.00,,,-99.99,FreeWX-Wi 1.01,2013-02-07 23:54:00,
2013-02-07 16:04:00,52.3,35.8,30.09,NNW,341,3.0,6.3,53,0.00,,,-99.99,FreeWX-Wi 1.01,2013-02-08 00:04:00,
2013-02-07 16:14:00,52.2,36.0,30.09,NNW,341,3.0,6.3,54,0.00,,,-99.99,FreeWX-Wi 1.01,2013-02-08 00:14:00,
2013-02-07 16:24:00,52.2,36.5,30.09,NNW,346,2.0,8.3,55,0.00,,,-99.99,FreeWX-Wi 1.01,2013-02-08 00:24:00,
2013-02-07 16:34:00,52.0,36.9,30.09,NNW,344,2.0,5.4,56,0.00,,,-99.99,FreeWX-Wi 1.01,2013-02-08 00:34:00,
2013-02-07 16:44:00,52.0,35.8,30.09,NNW,341,2.0,6.3,54,0.00,,,-99.99,FreeWX-Wi 1.01,2013-02-08 00:44:00,
2013-02-07 16:54:00,51.6,34.5,30.09,NNW,334,2.0,6.3,52,0.00,,,-99.99,FreeWX-Wi 1.01,2013-02-08 00:54:00,
2013-02-07 17:04:00,51.4,34.3,30.09,NNW,333,2.0,4.9,52,0.00,,,-99.99,FreeWX-Wi 1.01,2013-02-08 01:04:00,
2013-02-07 17:14:00,51.3,34.7,30.06,NNW,335,2.0,5.4,53,0.00,,,-99.99,FreeWX-Wi 1.01,2013-02-08 01:14:00,
2013-02-07 17:24:00,51.1,34.5,30.06,NNW,344,2.0,5.8,53,0.00,,,-99.99,FreeWX-Wi 1.01,2013-02-08 01:24:00,
2013-02-07 17:34:00,50.7,33.8,30.06,NNW,345,2.0,5.4,52,0.00,,,-99.99,FreeWX-Wi 1.01,2013-02-08 01:34:00,
2013-02-07 17:44:00,50.5,33.6,30.06,NNW,341,1.0,3.6,52,0.00,,,-99.99,FreeWX-Wi 1.01,2013-02-08 01:44:00,
2013-02-07 17:54:00,50.5,33.6,30.06,NNW,343,1.0,0.0,52,0.00,,,-99.99,FreeWX-Wi 1.01,2013-02-08 01:54:00,
2013-02-07 18:04:00,50.4,34.3,30.06,North,-999,0.0,4.9,54,0.00,,,-99.99,FreeWX-Wi 1.01,2013-02-08 02:04:00,
2013-02-07 18:14:00,50.2,34.7,30.06,North,-999,0.0,2.7,55,0.00,,,-99.99,FreeWX-Wi 1.01,2013-02-08 02:14:00,
2013-02-07 18:24:00,50.2,35.1,30.06,North,-999,0.0,3.6,56,0.00,,,-99.99,FreeWX-Wi 1.01,2013-02-08 02:24:00,
2013-02-07 18:34:00,50.4,35.8,30.06,North,-999,0.0,0.0,57,0.00,,,-99.99,FreeWX-Wi 1.01,2013-02-08 02:34:00,
2013-02-07 18:44:00,50.4,35.8,30.06,North,-999,0.0,4.9,57,0.00,,,-99.99,FreeWX-Wi 1.01,2013-02-08 02:44:00,
2013-02-07 18:54:00,50.4,36.5,30.06,North,-999,0.0,4.0,59,0.00,,,-99.99,FreeWX-Wi 1.01,2013-02-08 02:54:00,
2013-02-07 19:04:00,50.7,37.8,30.06,North,350,1.0,6.3,61,0.00,,,-99.99,FreeWX-Wi 1.01,2013-02-08 03:04:00,
2013-02-07 19:14:00,48.9,41.0,30.06,North,356,2.0,9.6,74,0.00,,,-99.99,FreeWX-Wi 1.01,2013-02-08 03:14:00,
2013-02-07 19:24:00,47.7,42.1,30.06,NNW,346,3.0,5.8,81,0.00,,,-99.99,FreeWX-Wi 1.01,2013-02-08 03:24:00,
2013-02-07 19:34:00,47.1,42.6,30.06,NNW,334,2.0,3.6,84,0.04,,,-99.99,FreeWX-Wi 1.01,2013-02-08 03:34:00,
2013-02-07 19:44:00,47.3,43.3,30.06,NW,323,1.0,2.7,86,0.08,,,-99.99,FreeWX-Wi 1.01,2013-02-08 03:44:00,
2013-02-07 19:54:00,47.1,43.5,30.06,North,-999,0.0,2.2,87,0.08,,,-99.99,FreeWX-Wi 1.01,2013-02-08 03:54:00,
2013-02-07 20:04:00,47.3,43.9,30.06,North,-999,0.0,2.7,88,0.08,,,-99.99,FreeWX-Wi 1.01,2013-02-08 04:04:00,
2013-02-07 20:14:00,47.3,44.2,30.06,North,-999,0.0,0.0,89,0.08,,,-99.99,FreeWX-Wi 1.01,2013-02-08 04:14:00,
2013-02-07 20:24:00,47.3,44.6,30.06,North,-999,0.0,3.1,90,0.04,,,-99.99,FreeWX-Wi 1.01,2013-02-08 04:24:00,
2013-02-07 20:34:00,47.3,44.6,30.06,North,-999,0.0,4.9,90,0.04,,,-99.99,FreeWX-Wi 1.01,2013-02-08 04:34:00,
2013-02-07 20:44:00,47.7,45.1,30.06,North,-999,0.0,4.0,91,0.00,,,-99.99,FreeWX-Wi 1.01,2013-02-08 04:44:00,
2013-02-07 20:54:00,47.7,45.1,30.06,North,-999,0.0,3.6,91,0.00,,,-99.99,FreeWX-Wi 1.01,2013-02-08 04:54:00,
2013-02-07 21:04:00,47.7,45.1,30.06,West,271,1.0,4.9,91,0.00,,,-99.99,FreeWX-Wi 1.01,2013-02-08 05:04:00,
2013-02-07 21:14:00,47.7,45.1,30.03,North,-999,0.0,3.1,91,0.00,,,-99.99,FreeWX-Wi 1.01,2013-02-08 05:14:00,
2013-02-07 21:24:00,47.5,45.0,30.03,North,-999,0.0,3.6,91,0.00,,,-99.99,FreeWX-Wi 1.01,2013-02-08 05:24:00,
2013-02-07 21:34:00,47.3,44.8,30.03,North,-999,0.0,0.0,91,0.00,,,-99.99,FreeWX-Wi 1.01,2013-02-08 05:34:00,
2013-02-07 21:44:00,47.3,44.8,30.03,North,-999,0.0,2.2,91,0.00,,,-99.99,FreeWX-Wi 1.01,2013-02-08 05:44:00,
2013-02-07 21:54:00,46.9,44.2,30.03,North,-999,0.0,0.0,90,0.00,,,-99.99,FreeWX-Wi 1.01,2013-02-08 05:54:00,
2013-02-07 22:04:00,46.9,44.2,30.03,North,-999,0.0,0.0,90,0.00,,,-99.99,FreeWX-Wi 1.01,2013-02-08 06:04:00,
2013-02-07 22:14:00,46.8,44.1,30.03,North,-999,0.0,0.0,90,0.00,,,-99.99,FreeWX-Wi 1.01,2013-02-08 06:14:00,
2013-02-07 22:24:00,46.6,43.9,30.03,North,-999,0.0,0.0,90,0.00,,,-99.99,FreeWX-Wi 1.01,2013-02-08 06:24:00,
2013-02-07 22:34:00,46.4,43.7,30.03,North,-999,0.0,0.0,90,0.00,,,-99.99,FreeWX-Wi 1.01,2013-02-08 06:34:00,
2013-02-07 22:44:00,46.4,43.7,30.03,North,-999,0.0,3.1,90,0.00,,,-99.99,FreeWX-Wi 1.01,2013-02-08 06:44:00,
2013-02-07 22:54:00,46.2,43.5,30.03,North,-999,0.0,0.0,90,0.00,,,-99.99,FreeWX-Wi 1.01,2013-02-08 06:54:00,
2013-02-07 23:04:00,46.0,43.3,30.03,North,-999,0.0,0.0,90,0.00,,,-99.99,FreeWX-Wi 1.01,2013-02-08 07:04:00,
2013-02-07 23:14:00,45.9,43.2,30.00,North,-999,0.0,0.0,90,0.00,,,-99.99,FreeWX-Wi 1.01,2013-02-08 07:14:00,
2013-02-07 23:24:00,45.7,43.0,30.00,North,-999,0.0,0.0,90,0.00,,,-99.99,FreeWX-Wi 1.01,2013-02-08 07:24:00,
2013-02-07 23:34:00,45.5,42.8,30.00,North,-999,0.0,0.0,90,0.00,,,-99.99,FreeWX-Wi 1.01,2013-02-08 07:34:00,
2013-02-07 23:44:00,45.3,42.6,30.00,North,-999,0.0,0.0,90,0.00,,,-99.99,FreeWX-Wi 1.01,2013-02-08 07:44:00,
2013-02-07 23:54:00,45.1,42.4,30.00,North,-999,0.0,2.7,90,0.00,,,-99.99,FreeWX-Wi 1.01,2013-02-08 07:54:00,